COSMOS 1275 DEB, 13467

Orbit data source: Space-Track

COSMOS 1275 DEB, 13467 is space debris in LEO originally from a launch on Thu, 04 Jun 1981 UTC launched from the Plesetsk Missile And Space Complex (PKMTR). Debris objects in space refer to the collection of defunct objects orbiting the Earth. Examples of debris include non-operational satellites, rocket bodies, and fragments generated from explosions, collisions, or faulty payload assembly.

Loading next visibility...
Identifier
13467, 1981-053FP
Orbit
LEO
Country
Flag of CISCIS
Related business
Manufacturer
Unknown
Mission
Spacecraft
Bus & Motor
Unknown
Mass
Unknown
Launch date (UTC)
1981-06-04 (44 years ago)
Launch vehicle
Unknown
Launch site
Plesetsk Missile And Space Complex (PKMTR)
Object type
Payload
Rocket body
Debris
Shape & HBR
Unknown shape, 0.1 m
Radar Cross Section
Small (<0.1 m²)

Expand to show TLE details & history
Last TLE update: 10 hours ago

TLE from 10 hours ago
0 COSMOS 1275 DEB
1 13467U 81053FP  25286.58648009  .00012818  00000-0  30854-2 0  9993
2 13467  82.9409  75.5465 0016238 329.5070 120.7593 14.53132965253346
Epoch: 2025-10-13T14:04Z
TLE epoch observation values (Epoch: 2025-10-13T14:04:31.879Z)
Latitude
82.96556°
Longitude
-64.50698°
Altitude
734.933 km
Speed
7.491 km/s
True Right ascension
11h 16m 03s
True Declination
82° 55' 25"
Sunlit
Object was in daylight at epoch
Visualization orbit readout
Latitude
Unknown
Longitude
Unknown
Altitude
Unknown
Speed
Unknown
Apparent Right ascension
Unknown
Apparent Declination
Unknown
Sunlit
N/A
Visualization observer readout
Local Sidereal Time
18:43:48
Azimuth
Unknown
Elevation
Unknown
Doppler factor
Unknown
Orbital elements
Apogee altitude
723.99 km
Perigee altitude
700.962 km
Semi-major axis
7,090.613 km
Eccentricity
0.00162
Inclination
82.9409°
RAAN
75.5465°
Arg. of periapsis
329.507°
True anomaly
120.91903°
Mean anomaly
120.7593°
Eccentric anomaly
120.83918°
Mean motion
3.63511 °/min
Orbital period
99.03 mins
BSTAR
0.0030854
Loading maneuver chart data...
Computing Atmospheric mass density...
Loading historical data...
Loading historical data...
Loading historical data...
Loading historical data...
Loading historical data...
Loading historical data...
Loading historical data...

Documentation

Showing up to 5 results
|